(2010 WT) |
Classification: Amor [NEO] SPK-ID: 3552524 |
[ hide orbit diagram ]
For accurate long-term ephemerides, please instead use our Horizons system.This orbit viewer was implemented using two-body methods, and hence should not be used for determining accurate long-term trajectories (over several years or decades) or planetary encounter circumstances.
Orbital Elements at Epoch 2459200.5 (2020-Dec-17.0) TDB
Reference: JPL 16 (heliocentric ecliptic J2000)
Element | Value | Uncertainty (1-sigma) | Units |
e | .3195006723890425 | 1.295e-07 | |
a | 1.594640425931714 | 1.0115e-08 | au |
q | 1.085151737627782 | 2.0943e-07 | au |
i | 8.978346752310509 | 2.0188e-05 | deg |
node | 241.1009735857011 | 2.9215e-05 | deg |
peri | 148.7389869622361 | 0.00011324 | deg |
M | 16.54264028039589 | 5.8506e-05 | deg |
tp | 2459166.701696082982 (2020-Nov-13.20169608) | 0.00011967 | TDB |
period | 735.5167738577663 2.01 | 6.9983e-06 1.916e-08 | d yr |
n | .4894517879066297 | 4.657e-09 | deg/d |
Q | 2.104129114235646 | 1.3347e-08 | au |
|
| | Orbit Determination Parameters
Additional Information
|
[ show covariance matrix ]
Physical Parameter Table
Parameter |
Symbol |
Value |
Units |
Sigma |
Reference |
Notes |
absolute magnitude |
H |
23.3 |
|
n/a |
MPO246936 |
|
|
[ show close-approach data ]
|